KLM648 LIME-LDDU

Flight info

Callsign KLM648
Flight time 1h 7m
Altitude 35000
Route LOGDI DCT GIPUK DCT EDUGI DCT SIPAL
Aircraft B738/M-SDE2E3FGIJ1RWYZ/LB1

Departure

Time 2026-05-07 19:34
Airport Il Caravaggio International Airport (LIME)

Arrival

Time 2026-05-07 20:41
Airport Dubrovnik Ruđer Bošković Airport (LDDU)
Time Latitude Longitude Altitude Speed Heading
2026-05-07 19:10 45.67192 9.70155 790 ft 0 kts 194°
2026-05-07 19:21 45.67134 9.70150 787 ft 13 kts 161°
2026-05-07 19:21 45.67061 9.70228 784 ft 13 kts 139°
2026-05-07 19:21 45.67028 9.70305 783 ft 6 kts 74°
2026-05-07 19:22 45.67059 9.70298 784 ft 6 kts 288°
2026-05-07 19:22 45.67066 9.70239 784 ft 6 kts 279°
2026-05-07 19:22 45.67073 9.70178 784 ft 10 kts 281°
2026-05-07 19:22 45.67093 9.70042 785 ft 15 kts 288°
2026-05-07 19:23 45.67113 9.69951 786 ft 7 kts 287°
2026-05-07 19:23 45.67101 9.69894 786 ft 7 kts 202°
2026-05-07 19:23 45.67045 9.69918 784 ft 10 kts 150°
2026-05-07 19:23 45.66984 9.69965 785 ft 10 kts 155°
2026-05-07 19:24 45.66923 9.70005 785 ft 10 kts 155°
2026-05-07 19:24 45.66863 9.70050 783 ft 11 kts 152°
2026-05-07 19:24 45.66786 9.70110 782 ft 13 kts 151°
2026-05-07 19:24 45.66769 9.70123 782 ft 0 kts 151°
2026-05-07 19:27 45.66759 9.70131 781 ft 5 kts 151°
2026-05-07 19:27 45.66718 9.70178 781 ft 12 kts 128°
2026-05-07 19:27 45.66681 9.70347 780 ft 19 kts 103°
2026-05-07 19:28 45.66647 9.70522 778 ft 18 kts 106°
2026-05-07 19:28 45.66615 9.70690 777 ft 17 kts 105°
2026-05-07 19:28 45.66584 9.70854 775 ft 17 kts 105°
2026-05-07 19:28 45.66554 9.71011 774 ft 16 kts 105°
2026-05-07 19:29 45.66521 9.71161 773 ft 15 kts 109°
2026-05-07 19:29 45.66489 9.71305 772 ft 15 kts 105°
2026-05-07 19:29 45.66460 9.71443 770 ft 14 kts 106°
2026-05-07 19:29 45.66441 9.71579 769 ft 14 kts 91°
2026-05-07 19:30 45.66456 9.71702 768 ft 11 kts 73°
2026-05-07 19:30 45.66473 9.71788 767 ft 5 kts 76°
2026-05-07 19:30 45.66480 9.71831 766 ft 0 kts 73°
2026-05-07 19:31 45.66481 9.71834 766 ft 1 kts 73°
2026-05-07 19:32 45.66501 9.71896 765 ft 9 kts 61°
2026-05-07 19:32 45.66531 9.71976 765 ft 7 kts 42°
2026-05-07 19:32 45.66559 9.71947 766 ft 6 kts 282°
2026-05-07 19:32 45.66580 9.71854 767 ft 0 kts 285°
2026-05-07 19:33 45.66580 9.71853 767 ft 0 kts 284°
2026-05-07 19:33 45.66609 9.71631 769 ft 64 kts 279°
2026-05-07 19:33 45.66797 9.70628 777 ft 142 kts 285°
2026-05-07 19:33 45.67123 9.68975 988 ft 192 kts 287°
2026-05-07 19:34 45.67392 9.67044 1801 ft 207 kts 274°
2026-05-07 19:34 45.67277 9.64915 2581 ft 218 kts 255°
2026-05-07 19:34 45.66713 9.63028 3828 ft 196 kts 234°
2026-05-07 19:34 45.65649 9.61788 4581 ft 207 kts 214°
2026-05-07 19:35 45.64376 9.60557 4805 ft 235 kts 215°
2026-05-07 19:35 45.62993 9.59199 5342 ft 246 kts 215°
2026-05-07 19:35 45.61562 9.57803 6100 ft 251 kts 214°
2026-05-07 19:35 45.60109 9.56404 6987 ft 253 kts 211°
2026-05-07 19:36 45.58444 9.55636 7850 ft 255 kts 185°
2026-05-07 19:36 45.56656 9.55500 8710 ft 259 kts 183°
2026-05-07 19:36 45.54842 9.55388 9555 ft 263 kts 183°
2026-05-07 19:36 45.53012 9.55267 10366 ft 267 kts 183°
2026-05-07 19:37 45.51147 9.55137 11196 ft 268 kts 184°
2026-05-07 19:37 45.49275 9.55037 11993 ft 272 kts 178°
2026-05-07 19:37 45.47432 9.55734 12756 ft 279 kts 159°
2026-05-07 19:37 45.45639 9.56834 13547 ft 283 kts 159°
2026-05-07 19:38 45.43821 9.57962 14250 ft 287 kts 159°
2026-05-07 19:38 45.41971 9.59097 14970 ft 290 kts 160°
2026-05-07 19:38 45.40108 9.60226 15695 ft 293 kts 160°
2026-05-07 19:38 45.38219 9.61363 16403 ft 296 kts 160°
2026-05-07 19:39 45.36343 9.62531 17069 ft 302 kts 156°
2026-05-07 19:39 45.34461 9.64076 17312 ft 324 kts 150°
2026-05-07 19:39 45.32513 9.65902 17488 ft 346 kts 148°
2026-05-07 19:39 45.30458 9.67880 17648 ft 367 kts 148°
2026-05-07 19:40 45.28277 9.69969 17795 ft 387 kts 148°
2026-05-07 19:40 45.25991 9.72133 18026 ft 402 kts 148°
2026-05-07 19:40 45.23630 9.74344 18513 ft 408 kts 149°
2026-05-07 19:40 45.21249 9.76555 19117 ft 411 kts 149°
2026-05-07 19:41 45.18845 9.78776 19709 ft 413 kts 149°
2026-05-07 19:41 45.16421 9.81007 20262 ft 417 kts 149°
2026-05-07 19:41 45.13975 9.83253 20810 ft 421 kts 149°
2026-05-07 19:41 45.11507 9.85517 21354 ft 424 kts 150°
2026-05-07 19:42 45.09055 9.87765 21881 ft 427 kts 150°
2026-05-07 19:42 45.06547 9.90062 22388 ft 431 kts 150°
2026-05-07 19:42 45.04015 9.92380 22905 ft 434 kts 150°
2026-05-07 19:42 45.01465 9.94710 23419 ft 438 kts 150°
2026-05-07 19:43 44.98890 9.97029 23846 ft 440 kts 152°
2026-05-07 19:43 44.96249 9.99246 24252 ft 443 kts 154°
2026-05-07 19:43 44.93570 10.01418 24659 ft 445 kts 154°
2026-05-07 19:43 44.90867 10.03597 25051 ft 448 kts 154°
2026-05-07 19:44 44.88158 10.05794 25445 ft 451 kts 154°
2026-05-07 19:44 44.85437 10.08018 25822 ft 454 kts 154°
2026-05-07 19:44 44.82697 10.10267 26190 ft 457 kts 154°
2026-05-07 19:44 44.79937 10.12537 26549 ft 460 kts 154°
2026-05-07 19:45 44.77200 10.14783 26898 ft 462 kts 155°
2026-05-07 19:45 44.74493 10.17278 27205 ft 473 kts 143°
2026-05-07 19:45 44.72337 10.20845 27499 ft 487 kts 124°
2026-05-07 19:45 44.70945 10.25237 27823 ft 497 kts 107°
2026-05-07 19:46 44.70416 10.30066 28117 ft 503 kts 97°
2026-05-07 19:46 44.70126 10.34985 28390 ft 507 kts 96°
2026-05-07 19:46 44.69872 10.39957 28636 ft 512 kts 95°
2026-05-07 19:46 44.69614 10.44968 28901 ft 515 kts 96°
2026-05-07 19:47 44.69337 10.49960 29198 ft 517 kts 96°
2026-05-07 19:47 44.69035 10.55002 29575 ft 518 kts 96°
2026-05-07 19:47 44.68714 10.60050 29980 ft 518 kts 97°
2026-05-07 19:47 44.68381 10.65093 30334 ft 518 kts 97°
2026-05-07 19:48 44.68042 10.70135 30686 ft 518 kts 97°
2026-05-07 19:48 44.67700 10.75171 31042 ft 518 kts 97°
2026-05-07 19:48 44.67356 10.80224 31389 ft 518 kts 97°
2026-05-07 19:48 44.67012 10.85255 31707 ft 518 kts 97°
2026-05-07 19:49 44.66687 10.89988 32022 ft 518 kts 97°
2026-05-07 19:49 44.66344 10.94964 32353 ft 517 kts 97°
2026-05-07 19:49 44.65997 10.99982 32688 ft 517 kts 97°
2026-05-07 19:49 44.65646 11.05011 33008 ft 517 kts 97°
2026-05-07 19:50 44.65294 11.10031 33315 ft 517 kts 97°
2026-05-07 19:50 44.64940 11.15048 33631 ft 516 kts 98°
2026-05-07 19:50 44.64582 11.20078 33958 ft 516 kts 98°
2026-05-07 19:50 44.64224 11.25084 34281 ft 514 kts 98°
2026-05-07 19:51 44.63867 11.30062 34656 ft 511 kts 98°
2026-05-07 19:51 44.63509 11.35011 34984 ft 509 kts 98°
2026-05-07 19:51 44.62778 11.44988 35007 ft 515 kts 98°
2026-05-07 19:52 44.62041 11.54960 35001 ft 510 kts 98°
2026-05-07 19:52 44.61303 11.64826 35018 ft 507 kts 98°
2026-05-07 19:53 44.60558 11.74668 35025 ft 507 kts 98°
2026-05-07 19:53 44.59810 11.84450 35026 ft 507 kts 98°
2026-05-07 19:54 44.59000 11.93899 35010 ft 505 kts 104°
2026-05-07 19:54 44.56801 12.03074 35017 ft 495 kts 120°
2026-05-07 19:55 44.53721 12.11708 35003 ft 495 kts 122°
2026-05-07 19:55 44.50624 12.20320 35006 ft 495 kts 121°
2026-05-07 19:56 44.47559 12.28971 35004 ft 496 kts 121°
2026-05-07 19:56 44.44511 12.37633 35015 ft 496 kts 121°
2026-05-07 19:57 44.41459 12.46293 35012 ft 496 kts 121°
2026-05-07 19:57 44.38394 12.54955 35008 ft 496 kts 121°
2026-05-07 19:58 44.35345 12.63539 35012 ft 496 kts 121°
2026-05-07 19:58 44.32269 12.72169 35010 ft 496 kts 121°
2026-05-07 19:59 44.29187 12.80790 35011 ft 496 kts 121°
2026-05-07 19:59 44.26098 12.89402 35011 ft 496 kts 121°
2026-05-07 20:00 44.23010 12.97986 35013 ft 495 kts 121°
2026-05-07 20:00 44.19909 13.06578 35016 ft 495 kts 121°
2026-05-07 20:01 44.16821 13.15110 35013 ft 495 kts 122°
2026-05-07 20:01 44.13724 13.23638 35015 ft 495 kts 122°
2026-05-07 20:02 44.10610 13.32187 35019 ft 495 kts 122°
2026-05-07 20:02 44.07494 13.40714 35014 ft 495 kts 122°
2026-05-07 20:03 44.04364 13.49255 35013 ft 494 kts 122°
2026-05-07 20:03 44.02930 13.53158 35014 ft 494 kts 122°
2026-05-07 20:04 43.99801 13.61658 35025 ft 494 kts 122°
2026-05-07 20:04 43.96674 13.70125 35021 ft 495 kts 122°
2026-05-07 20:05 43.93528 13.78619 35029 ft 495 kts 122°
2026-05-07 20:05 43.90369 13.87120 35026 ft 496 kts 122°
2026-05-07 20:06 43.87198 13.95629 35027 ft 496 kts 122°
2026-05-07 20:06 43.84025 14.04121 35031 ft 497 kts 123°
2026-05-07 20:07 43.81376 14.11192 35027 ft 497 kts 123°
2026-05-07 20:07 43.78080 14.21385 35025 ft 504 kts 111°
2026-05-07 20:08 43.76435 14.29205 35026 ft 506 kts 110°
2026-05-07 20:08 43.74537 14.38577 35031 ft 506 kts 110°
2026-05-07 20:09 43.72590 14.47939 35034 ft 506 kts 110°
2026-05-07 20:10 43.69605 14.61887 35032 ft 507 kts 111°
2026-05-07 20:10 43.67585 14.71230 35032 ft 507 kts 111°
2026-05-07 20:11 43.65560 14.80570 35033 ft 507 kts 111°
2026-05-07 20:11 43.63532 14.89892 35040 ft 507 kts 111°
2026-05-07 20:12 43.61502 14.99185 35037 ft 508 kts 111°
2026-05-07 20:12 43.59452 15.08529 35035 ft 508 kts 112°
2026-05-07 20:13 43.57398 15.17848 35037 ft 508 kts 112°
2026-05-07 20:13 43.55331 15.27186 35035 ft 508 kts 112°
2026-05-07 20:14 43.53274 15.36438 35038 ft 508 kts 112°
2026-05-07 20:14 43.51193 15.45756 35035 ft 507 kts 112°
2026-05-07 20:15 43.49107 15.55057 35036 ft 507 kts 112°
2026-05-07 20:15 43.47018 15.64331 35038 ft 507 kts 112°
2026-05-07 20:16 43.44935 15.73537 34696 ft 511 kts 112°
2026-05-07 20:16 43.43866 15.78242 34083 ft 512 kts 112°
2026-05-07 20:16 43.42804 15.82911 33359 ft 511 kts 112°
2026-05-07 20:16 43.41739 15.87583 32639 ft 511 kts 111°
2026-05-07 20:17 43.40673 15.92248 31925 ft 511 kts 111°
2026-05-07 20:17 43.39607 15.96910 31201 ft 511 kts 111°
2026-05-07 20:17 43.38535 16.01581 30456 ft 512 kts 110°
2026-05-07 20:17 43.37476 16.06190 29629 ft 513 kts 110°
2026-05-07 20:18 43.36404 16.10848 28990 ft 508 kts 110°
2026-05-07 20:18 43.35344 16.15448 28403 ft 502 kts 110°
2026-05-07 20:18 43.34297 16.19986 27839 ft 495 kts 110°
2026-05-07 20:18 43.33260 16.24463 27264 ft 489 kts 110°
2026-05-07 20:19 43.32229 16.28903 26704 ft 484 kts 110°
2026-05-07 20:19 43.31212 16.33276 26152 ft 478 kts 110°
2026-05-07 20:19 43.30204 16.37600 25591 ft 473 kts 110°
2026-05-07 20:19 43.29202 16.41888 25053 ft 468 kts 110°
2026-05-07 20:20 43.28214 16.46109 24523 ft 463 kts 111°
2026-05-07 20:20 43.27228 16.50312 23985 ft 458 kts 111°
2026-05-07 20:20 43.26258 16.54441 23424 ft 453 kts 111°
2026-05-07 20:20 43.25294 16.58536 22809 ft 448 kts 111°
2026-05-07 20:21 43.24340 16.62581 22273 ft 442 kts 111°
2026-05-07 20:21 43.23410 16.66520 21739 ft 437 kts 111°
2026-05-07 20:21 43.22477 16.70461 21214 ft 432 kts 111°
2026-05-07 20:21 43.21554 16.74357 20691 ft 428 kts 111°
2026-05-07 20:22 43.20638 16.78213 20175 ft 423 kts 111°
2026-05-07 20:22 43.19726 16.82046 19663 ft 419 kts 111°
2026-05-07 20:22 43.18825 16.85827 19165 ft 416 kts 111°
2026-05-07 20:22 43.17929 16.89580 18665 ft 412 kts 111°
2026-05-07 20:23 43.17040 16.93301 18139 ft 409 kts 111°
2026-05-07 20:23 43.16155 16.96997 17581 ft 406 kts 111°
2026-05-07 20:23 43.15278 17.00657 17068 ft 402 kts 110°
2026-05-07 20:23 43.14422 17.04222 16583 ft 397 kts 110°
2026-05-07 20:24 43.13506 17.07759 16074 ft 391 kts 118°
2026-05-07 20:24 43.12130 17.10906 15712 ft 378 kts 126°
2026-05-07 20:24 43.10696 17.13857 15212 ft 366 kts 126°
2026-05-07 20:24 43.09300 17.16713 14752 ft 355 kts 126°
2026-05-07 20:25 43.07953 17.19494 14312 ft 346 kts 126°
2026-05-07 20:25 43.06639 17.22233 13865 ft 344 kts 126°
2026-05-07 20:25 43.05323 17.24994 13296 ft 346 kts 126°
2026-05-07 20:25 43.04027 17.27724 12804 ft 337 kts 126°
2026-05-07 20:26 43.02761 17.30391 12352 ft 332 kts 126°
2026-05-07 20:26 43.01528 17.32986 11940 ft 327 kts 126°
2026-05-07 20:26 43.00309 17.35548 11701 ft 316 kts 126°
2026-05-07 20:26 42.99127 17.38032 11454 ft 307 kts 127°
2026-05-07 20:27 42.97976 17.40444 11231 ft 299 kts 127°
2026-05-07 20:27 42.96849 17.42807 11012 ft 294 kts 127°
2026-05-07 20:27 42.95740 17.45127 10796 ft 289 kts 127°
2026-05-07 20:27 42.94648 17.47412 10579 ft 285 kts 127°
2026-05-07 20:28 42.93564 17.49677 10376 ft 285 kts 127°
2026-05-07 20:28 42.92486 17.51927 10159 ft 282 kts 127°
2026-05-07 20:28 42.91417 17.54160 9909 ft 280 kts 127°
2026-05-07 20:28 42.90356 17.56372 9600 ft 278 kts 127°
2026-05-07 20:29 42.89305 17.58564 9332 ft 275 kts 127°
2026-05-07 20:29 42.88256 17.60750 9032 ft 273 kts 127°
2026-05-07 20:29 42.87234 17.62878 8753 ft 271 kts 127°
2026-05-07 20:29 42.86194 17.65041 8449 ft 268 kts 127°
2026-05-07 20:30 42.85188 17.67133 8223 ft 266 kts 127°
2026-05-07 20:30 42.84169 17.69246 7918 ft 267 kts 127°
2026-05-07 20:30 42.83155 17.71350 7596 ft 264 kts 127°
2026-05-07 20:30 42.82176 17.73380 7290 ft 260 kts 126°
2026-05-07 20:31 42.81194 17.75418 6987 ft 255 kts 127°
2026-05-07 20:31 42.80226 17.77420 6697 ft 252 kts 127°
2026-05-07 20:31 42.79270 17.79397 6422 ft 247 kts 127°
2026-05-07 20:31 42.78341 17.81317 6201 ft 239 kts 127°
2026-05-07 20:32 42.77435 17.83189 5937 ft 234 kts 126°
2026-05-07 20:32 42.76546 17.85025 5670 ft 230 kts 126°
2026-05-07 20:32 42.75676 17.86821 5415 ft 225 kts 126°
2026-05-07 20:32 42.74670 17.88385 5166 ft 215 kts 148°
2026-05-07 20:33 42.73446 17.89434 5073 ft 200 kts 150°
2026-05-07 20:33 42.72307 17.90421 4976 ft 193 kts 149°
2026-05-07 20:33 42.71183 17.91402 4906 ft 191 kts 149°
2026-05-07 20:33 42.70077 17.92394 4804 ft 191 kts 143°
2026-05-07 20:34 42.69280 17.93850 4721 ft 191 kts 123°
2026-05-07 20:34 42.68622 17.95368 4615 ft 182 kts 123°
2026-05-07 20:34 42.68013 17.96823 4545 ft 174 kts 122°
2026-05-07 20:34 42.67446 17.98274 4377 ft 171 kts 121°
2026-05-07 20:35 42.66918 17.99630 4248 ft 153 kts 122°
2026-05-07 20:35 42.66444 18.00836 4064 ft 141 kts 122°
2026-05-07 20:35 42.65992 18.01975 3963 ft 139 kts 122°
2026-05-07 20:35 42.65529 18.03138 3810 ft 141 kts 122°
2026-05-07 20:36 42.65062 18.04311 3645 ft 141 kts 122°
2026-05-07 20:36 42.64598 18.05479 3495 ft 140 kts 122°
2026-05-07 20:36 42.64145 18.06622 3490 ft 139 kts 121°
2026-05-07 20:36 42.63681 18.07786 3320 ft 139 kts 121°
2026-05-07 20:37 42.63222 18.08945 3139 ft 139 kts 121°
2026-05-07 20:37 42.62766 18.10092 2950 ft 137 kts 121°
2026-05-07 20:37 42.62319 18.11219 2777 ft 135 kts 120°
2026-05-07 20:37 42.61875 18.12338 2605 ft 134 kts 120°
2026-05-07 20:38 42.61432 18.13454 2419 ft 133 kts 119°
2026-05-07 20:38 42.60996 18.14551 2244 ft 133 kts 119°
2026-05-07 20:38 42.60559 18.15654 2074 ft 132 kts 118°
2026-05-07 20:38 42.60122 18.16757 1894 ft 133 kts 118°
2026-05-07 20:39 42.59683 18.17864 1711 ft 134 kts 116°
2026-05-07 20:39 42.59245 18.18970 1541 ft 132 kts 116°
2026-05-07 20:39 42.58801 18.20092 1349 ft 139 kts 116°
2026-05-07 20:39 42.58353 18.21227 1162 ft 135 kts 115°
2026-05-07 20:40 42.57911 18.22335 945 ft 133 kts 115°
2026-05-07 20:40 42.57490 18.23435 793 ft 131 kts 114°
2026-05-07 20:40 42.57068 18.24511 620 ft 129 kts 120°
2026-05-07 20:40 42.56653 18.25542 527 ft 110 kts 118°
2026-05-07 20:41 42.56385 18.26197 526 ft 49 kts 118°
2026-05-07 20:41 42.56255 18.26516 525 ft 30 kts 120°
2026-05-07 20:41 42.56155 18.26598 526 ft 12 kts 216°
2026-05-07 20:41 42.56115 18.26520 525 ft 9 kts 239°
2026-05-07 20:42 42.56106 18.26434 523 ft 10 kts 289°
2026-05-07 20:42 42.56099 18.26355 521 ft 9 kts 238°
2026-05-07 20:42 42.56080 18.26316 520 ft 3 kts 237°
2026-05-07 20:42 42.56078 18.26311 520 ft 0 kts 238°